Flag for Mali Weather past 2 weeks in Koutiala, Mali

Now
73 °F

Clear.


Feels Like: 75 °F
Forecast: 64 / 96 °F
Wind: 10 mph from Northeast

Location: Bamako / Senou

Current Time: Mar 30, 2015 at 6:30:08 AM

Latest Report: Mar 30, 2015 at 6:00 AM


Visibility: 10 mi

Pressure: 29.95 "Hg

Humidity: 15%

Dew point: 23 °F

Location of KoutialaLocation

Historic Weather in Koutiala — Graph

°F

Koutiala temperature yesterday

Maximum temperature yesterday: 95 °F (at 2:30 PM)
Minimum temperature yesterday: 73 °F (at 6:00 AM)
Average temperature yesterday: 84 °F

Past Weeks' High & Low Weather Summary

 TemperatureHumidityPressure
High102 °F (Mar 15, 4:00 PM)50% (Mar 21, 5:30 AM)30.07 "Hg (Mar 21, 5:30 AM)
Low72 °F (Mar 28, 6:30 AM)6% (Mar 28, 8:00 PM)29.74 "Hg (Mar 20, 3:00 PM)
Average87 °F17%29.89 "Hg
* Reported Mar 15 5:00 AM — Mar 30 5:30 AM, Koutiala, Weather by CustomWeather, © 2015

Note: Actual official high and low records may vary slightly from our data, if they occured in-between our weather recording intervals... More about our weather records

Advertising

Koutiala weather history for previous 24 hours

 ConditionsComfort  
Time TempWeatherWind HumidityBarometerVisibility
5:30 AM
Mon, Mar 30
73 °FClear.9 mph15%29.95 "Hg10 mi
5:00 AM73 °FClear.9 mph15%29.95 "Hg10 mi
4:30 AM73 °FClear.9 mph15%29.95 "Hg10 mi
4:00 AM72 °FClear.7 mph17%29.95 "Hg10 mi
3:00 AM73 °FClear.7 mph15%29.95 "Hg10 mi
2:30 AM75 °FClear.9 mph14%29.95 "Hg10 mi
2:00 AM73 °FClear.8 mph15%29.95 "Hg10 mi
1:30 AM75 °FClear.9 mph15%29.95 "Hg10 mi
1:00 AM75 °FClear.8 mph13%29.95 "Hg10 mi
12:30 AM75 °FClear.7 mph13%29.98 "Hg10 mi
12:00 AM75 °FClear.7 mph11%29.98 "Hg10 mi
11:30 PM
Sun, Mar 29
79 °FClear.9 mph10%29.98 "Hg10 mi
11:00 PM79 °FClear.8 mph10%29.98 "Hg10 mi
10:30 PM79 °FClear.8 mph10%29.98 "Hg10 mi
10:00 PM79 °FClear.8 mph11%29.98 "Hg10 mi
9:00 PM82 °FClear.5 mph17%29.92 "Hg10 mi
8:30 PM81 °FClear.7 mph10%29.95 "Hg10 mi
8:00 PM82 °FClear.7 mph9%29.92 "Hg10 mi
7:30 PM84 °FClear.8 mph8%29.92 "Hg10 mi
7:00 PM86 °FClear.7 mph8%29.92 "Hg10 mi
6:30 PM90 °FSunny.8 mph7%29.89 "Hg10 mi
6:00 PM93 °FSunny.10 mph6%29.89 "Hg10 mi
5:30 PM95 °FPassing clouds.9 mph6%29.89 "HgN/A
5:00 PM95 °FPassing clouds.7 mph6%29.89 "HgN/A
4:30 PM95 °FPassing clouds.10 mph6%29.89 "HgN/A
4:00 PM95 °FPassing clouds.10 mph6%29.89 "HgN/A
3:30 PM95 °FPassing clouds.10 mph6%29.89 "HgN/A
3:00 PM95 °FPassing clouds.10 mph7%29.92 "HgN/A
2:30 PM95 °FPassing clouds.9 mph7%29.92 "HgN/A
2:00 PM93 °FPassing clouds.12 mph8%29.92 "HgN/A
1:30 PM93 °FPassing clouds.9 mph8%29.95 "HgN/A
1:00 PM91 °FPassing clouds.12 mph9%29.95 "HgN/A
12:30 PM91 °FPassing clouds.14 mph9%29.98 "HgN/A
12:00 PM90 °FPassing clouds.13 mph9%30.01 "HgN/A
11:30 AM88 °FPassing clouds.12 mph9%30.01 "HgN/A
9:30 AM82 °FSunny.15 mph12%30.04 "Hg10 mi
9:00 AM81 °FPassing clouds.14 mph13%30.04 "HgN/A
8:30 AM77 °FPassing clouds.13 mph14%30.04 "HgN/A
8:00 AM75 °FSunny.15 mph15%30.01 "Hg10 mi
7:30 AM75 °FPassing clouds.12 mph15%30.01 "HgN/A
7:00 AM73 °FSunny.8 mph16%30.01 "Hg10 mi
6:30 AM73 °FPassing clouds.8 mph16%30.01 "HgN/A
6:00 AM73 °FClear.7 mph15%29.98 "Hg10 mi
Weather by CustomWeather, © 2015

See weather overviewHow to use our weather pages